Meteo Giornale » Osservazioni meteo Stati Uniti (USA) » Mesquite
ore: 00:55 - Osservazioni Meteo Mesquite
Lat. 32° 45' N Lon. 96° 32' W Alt. 136 metri s.l.m.
0 °C
Nuvoloso
Temp. 24 Ore
0 °C
0 °C
Sud-Est
5.5 Km/h
Dew point 0 °C
Umidità 83 %
Visibilità 10 Km
Il sole sorge alle ore 07:01
Il sole tramonta alle ore 19:51
| Data e Ora | Cielo e Fenomeni | T °C | DP °C | Um. % | Pres. hPa | Vis. km | Vento km/h | |
|---|---|---|---|---|---|---|---|---|
| Oggi h: 00:55 | Nuvoloso | 0 | 0 | 83 | 1015 | 10 | SE 5.5 | |
| Oggi h: 00:35 | Molto Nuvoloso | 0 | 0 | 78 | 1015 | 10 | SE 7.4 | |
| Oggi h: 00:15 | Nuvoloso | 0 | 0 | 78 | 1015 | 10 | SE 7.4 | |
| Oggi h: 00:00 | Sereno | 0 | 0 | 54 | 1015 | 10 | SE 11.1 | |
| Ieri h: 23:35 | Sereno | 0 | 0 | 78 | 1015 | 10 | SE 9.3 | |
| Ieri h: 23:15 | Sereno | 0 | 0 | 78 | 1015 | 10 | E/SE 5.5 | |
| Ieri h: 22:55 | Sereno | 0 | 0 | 78 | 1015 | 10 | SE 5.5 | |
| Ieri h: 22:35 | Sereno | 0 | 0 | 73 | 1014 | 10 | N 0 | |
| Ieri h: 22:15 | Sereno | 0 | 0 | 73 | 1014 | 10 | SE 5.5 | |
| Ieri h: 21:55 | Sereno | 0 | 0 | 73 | 1014 | 10 | N 0 | |
| Ieri h: 21:35 | Sereno | 0 | 0 | 83 | 1014 | 10 | SE 5.5 | |
| Ieri h: 21:15 | Sereno | 0 | 0 | 69 | 1014 | 10 | SE 5.5 | |
| Ieri h: 20:55 | Sereno | 0 | 0 | 65 | 1014 | 10 | SE 5.5 | |
| Ieri h: 19:50 | Sereno | 0 | 0 | 28 | 1013 | 10 | SE 7.4 | |
| Ieri h: 18:50 | Nuvoloso | 0 | 0 | 94 | 1013 | 10 | SE 11.1 | |
| Ieri h: 17:50 | Nuvoloso | 0 | 0 | 38 | 1013 | 10 | E 11.1 | |
| Ieri h: 16:50 | Nuvoloso | 0 | 0 | 43 | 1014 | 10 | E/SE 9.3 | |
| Ieri h: 15:50 | Nuvoloso | 0 | 0 | 32 | 1014 | 10 | S 14.8 | |
| Ieri h: 14:50 | Molto Nuvoloso | 0 | 0 | 49 | 1015 | 10 | SE 11.1 | |
| Ieri h: 13:50 | Molto Nuvoloso | 0 | 0 | 40 | 1016 | 10 | SE 16.7 | |
| Ieri h: 12:50 | Sereno | 0 | 0 | 66 | 1017 | 10 | SO 11.1 | |
| Ieri h: 11:50 | Sereno | 0 | 0 | 23 | 1017 | 10 | S 5.5 | |
| Ieri h: 10:50 | Sereno | 0 | 0 | 41 | 1018 | 10 | S 9.3 | |
| Ieri h: 09:50 | Sereno | 0 | 0 | 57 | 1017 | 10 | S/SO 11.1 | |
| Ieri h: 08:50 | Sereno | 0 | 0 | 88 | 1017 | 10 | S/SE 7.4 | |
| Ieri h: 07:50 | Sereno | 0 | 0 | 87 | 1016 | 10 | N 0 | |
| Ieri h: 06:50 | Sereno | 0 | 0 | 66 | 1016 | 10 | N 0 | |
| Ieri h: 06:35 | Sereno | 0 | 0 | 100 | 1016 | 10 | N 0 | |
| Ieri h: 06:15 | Sereno | 0 | 0 | 100 | 1015 | 10 | SE 5.5 | |
| Ieri h: 05:55 | Sereno | 0 | 0 | 100 | 1015 | 10 | N 0 | |
| Ieri h: 05:35 | Sereno | 0 | 0 | 94 | 1015 | 10 | S/SE 5.5 | |
| Ieri h: 05:15 | Sereno | 0 | 0 | 94 | 1015 | 10 | N 0 | |
| Ieri h: 04:55 | Sereno | 0 | 0 | 94 | 1015 | 10 | N 0 | |
| Ieri h: 04:35 | Sereno | 0 | 0 | 94 | 1015 | 10 | N 0 | |
| Ieri h: 04:15 | Sereno | 0 | 0 | 94 | 1015 | 10 | SE 5.5 | |
| Ieri h: 03:55 | Sereno | 0 | 0 | 94 | 1015 | 10 | N 0 | |
| Ieri h: 03:35 | Sereno | 0 | 0 | 94 | 1015 | 10 | S 9.3 | |
| Ieri h: 03:15 | Sereno | 0 | 0 | 88 | 1015 | 10 | S 9.3 | |
| Ieri h: 02:55 | Sereno | 0 | 0 | 88 | 1015 | 10 | S 9.3 | |
| Ieri h: 02:35 | Sereno | 0 | 0 | 88 | 1014 | 10 | S 7.4 | |
| Ieri h: 02:15 | Sereno | 0 | 0 | 94 | 1014 | 10 | S 7.4 | |
| Ieri h: 01:55 | Sereno | 0 | 0 | 94 | 1014 | 10 | S 7.4 | |
| Ieri h: 01:35 | Nuvoloso | 0 | 0 | 88 | 1014 | 10 | S 5.5 | |



